Aérodrome :
LOGIN :

S'inscrire | Disclaimer

   EN    FR    IT 

 










Légende :    VFR   VFR Marginal   IFR   IFR Intensif   IFR Très Intensif
Visi : 
Plafond : 
>= 8 km
>= 3000ft
5 à 8 km
1000 à 3000 ft
1500m à 5 km
500 à 1000 ft
800 à 1500m
200 à 500 ft
< 800m
< 200 ft
Symboles :   Orages  Brouillard  Fortes neiges  Fortes précipitations  Vent > 20 kt
SIGMETs :   Divers  Orages  Givrage  Turbulence  Onde Orograph.  Cendres Volcan.







- Altitude de l'aérodrome : 82 ft
- Code IATA : AAR


EKAH - Aarhus Tirstrup

DERNIER METAR :
  • 181050Z AUTO 28006KT 9999NDV FEW210/// 00/M03 Q1013

METARs EXPIRÉS :
  • 181020Z AUTO 29006KT 9999NDV NCD M00/M03 Q1013
  • 180950Z AUTO 29004KT 9999NDV NCD M01/M04 Q1013
  • 180920Z AUTO 28004KT 9999NDV NCD M02/M04 Q1012
  • 180850Z AUTO 28002KT 9999NDV NCD M03/M04 Q1012
  • 180820Z AUTO 29002KT 9999NDV NCD M03/M05 Q1011

TAF TAF EKAH
Valide du 18 à 06h jusqu'au 19 à 06h UTC


180512Z 1806/1906 25006KT 9999 FEW030
Pas de NOTAMs connus pour ce terrain.



MET'MAP, la Météo Aéronautique d'un coup d'oeil ! - Copyright ORBIFLY Décembre 2007 - Disclaimer

ORBIFLY MET'MAP TEAM :

Programmation & Développement : Alexandra Zaïnal
Conception & Développement : Baudouin d'Aumeries
Co-Programmation & Développement : Marc-Olivier Méhu
Soutien technique & logistique : Manuel Goepfert

Contact : metmap@orbifly.com




SOURCES & CREDITS :

   NOAA